Temperature
12 11 11 10 10 10 9 9 9 9 9 8 8 9 9 9 9 9 9 9 10 10 10 11 11 12 12 12 13 13 13 14 14 15 16 16 16 16 16 16 16 16 16
12 11 11 10 10 10 9 9 9 8 8 8 8 8 8 8 9 9 9 9 9 9 10 10 10 11 11 12 12 12 13 13 14 14 15 15 15 16 16 16 16 16 16
12 11 11 10 10 10 9 9 9 8 8 8 8 8 8 8 8 8 8 9 9 9 9 9 10 10 10 11 11 12 12 13 13 14 14 15 15 15 15 15 15 15 15
11 11 11 10 10 10 9 9 8 8 8 8 8 8 8 8 8 8 8 8 8 9 9 9 9 9 10 10 11 11 11 12 12 13 14 14 14 15 15 15 14 14 15
11 11 11 10 10 9 9 9 8 8 8 7 7 7 7 7 8 8 7 7 7 8 8 8 8 9 9 10 10 10 11 11 12 12 13 13 14 14 14 14 14 14 14
11 11 10 10 9 9 9 8 8 8 7 7 7 7 7 7 7 7 7 7 7 7 7 8 8 8 9 9 9 10 10 11 11 11 12 12 13 14 14 14 14 13 12
11 10 10 9 9 9 8 8 8 8 7 7 7 7 7 8 7 7 7 7 6 7 7 7 7 8 8 8 9 9 10 10 10 11 11 12 12 13 13 14 14 14 14
10 10 9 9 9 8 8 8 8 7 7 7 8 8 7 8 7 7 7 6 6 6 6 7 7 7 8 8 8 9 9 10 10 10 11 11 12 12 13 14 14 13 13
10 9 9 8 8 8 8 7 7 7 7 8 8 8 8 8 7 7 7 6 6 6 6 6 6 7 7 7 8 8 9 9 10 10 10 11 11 12 12 12 12 12 12
9 9 8 8 8 7 7 7 7 7 8 8 8 8 8 7 7 7 7 6 6 6 6 6 6 6 7 7 7 8 8 9 9 10 10 10 10 11 11 12 12 12 12
9 9 8 8 7 7 7 7 7 7 8 8 8 8 7 7 7 7 7 6 6 6 6 6 6 6 6 7 7 8 8 9 9 9 9 10 10 10 11 11 12 12 13
9 8 8 8 7 7 7 7 7 7 8 8 8 8 7 7 7 7 6 6 6 6 6 6 6 6 6 7 7 7 8 8 9 9 9 9 10 10 10 11 11 11 12
9 8 8 8 7 7 7 7 7 8 8 8 8 7 7 7 7 6 6 6 6 6 6 6 6 6 6 7 7 7 8 8 8 8 9 9 9 10 10 11 11 11 11
8 8 8 7 7 7 7 7 7 8 8 8 8 7 7 7 6 6 6 6 6 6 6 6 6 6 6 7 7 7 8 8 8 8 9 9 9 9 10 10 10 10 11
8 8 7 7 7 7 7 7 8 8 8 8 8 7 7 7 6 6 6 6 6 6 6 6 6 6 7 7 7 8 8 8 8 8 9 9 9 9 9 10 10 10 10
8 8 7 7 7 7 7 8 9 8 8 8 8 8 7 7 6 6 6 6 6 6 6 6 6 6 7 7 7 8 8 8 8 8 9 9 9 9 9 10 10 10 10
8 7 7 7 7 7 7 8 8 9 9 8 8 8 7 7 7 6 6 6 6 6 6 6 7 7 7 7 8 8 8 8 8 8 9 9 9 9 9 9 9 9 10
8 7 7 7 7 7 8 8 8 8 8 9 8 8 8 7 7 6 6 6 6 6 7 7 7 7 7 8 8 8 8 8 8 8 9 9 9 9 9 9 9 9 9
8 8 7 7 7 7 8 8 8 8 8 8 8 8 8 8 7 7 7 7 7 7 7 7 7 7 7 8 8 8 8 8 8 8 9 9 9 9 9 9 9 9 9
8 7 7 7 7 8 8 8 8 8 8 8 8 8 8 8 8 7 7 7 7 7 7 7 7 8 8 8 8 8 8 8 8 9 9 9 9 9 9 9 9 9 9
8 8 7 7 7 7 8 8 8 8 8 8 8 8 8 8 8 8 7 7 7 8 8 8 8 8 8 8 8 8 8 9 9 9 9 9 9 9 9 9 9 9 9
8 7 7 7 7 7 8 8 8 8 8 8 8 8 8 8 8 8 8 8 8 8 8 8 8 8 8 8 8 9 9 9 9 9 9 9 9 9 9 9 9 9 9
8 7 7 7 7 7 7 8 8 8 8 8 8 8 8 8 8 8 8 8 8 8 8 8 8 8 8 8 9 9 9 9 9 9 9 9 9 9 9 9 9 8 8
8 7 7 7 7 7 7 8 8 8 8 8 8 8 8 8 8 8 8 8 8 8 8 8 8 8 8 8 9 9 9 9 9 9 9 9 9 9 9 9 8 8 8
7 7 6 6 6 7 7 8 8 8 8 8 8 8 8 8 8 8 8 8 8 8 8 8 8 8 8 8 8 9 9 9 9 9 9 8 9 8 8 8 8 8 8
7 6 6 6 6 6 7 7 7 8 8 8 8 8 8 8 8 8 8 8 8 8 8 8 8 8 8 8 8 8 8 8 8 8 8 8 8 8 8 8 8 8 8
Wind_Speed
5 5 5 5 6 6 6 7 7 7 7 7 8 8 8 8 7 6 6 6 6 7 6 6 7 6 4 3 3 3 3 3 4 3 2 2 3 8 7 7 9 8 8
6 5 6 6 6 6 7 8 8 8 8 8 8 8 8 9 8 7 8 8 7 7 7 7 8 6 6 5 4 4 4 3 4 4 2 2 3 8 9 9 6 7 7
6 5 6 6 7 7 8 8 8 8 8 8 8 8 9 9 9 9 9 9 8 8 8 8 8 7 7 6 6 5 4 5 4 4 4 2 2 6 8 7 7 5 6
5 5 6 7 7 8 8 8 8 8 8 8 8 9 9 9 9 10 9 9 9 9 8 8 8 8 9 8 7 7 6 5 5 4 4 3 4 5 8 8 6 4 4
5 6 7 7 7 7 7 7 8 8 8 8 8 9 9 8 9 9 9 10 9 9 8 8 8 11 12 10 8 7 7 6 5 5 5 4 5 8 8 6 7 6 3
6 7 7 6 6 6 7 8 8 8 8 8 9 9 9 10 12 14 11 8 8 8 9 8 9 11 13 14 15 13 11 9 8 6 6 6 7 8 7 9 9 7 5
6 7 6 6 6 7 8 8 8 9 9 9 9 9 10 12 16 17 17 11 10 10 10 9 11 12 11 8 11 14 14 15 13 9 8 8 8 9 10 12 11 9 5
6 5 5 6 7 8 8 9 9 8 9 9 10 10 10 12 16 16 18 12 10 11 11 11 11 11 11 9 8 8 8 10 11 9 8 8 7 8 11 11 10 7 6
5 6 6 7 8 9 9 10 9 9 10 10 10 10 10 12 15 16 15 8 9 11 12 12 12 12 14 14 9 8 8 8 10 11 9 8 9 10 11 10 11 11 8
6 7 7 7 8 9 10 10 9 9 10 10 10 10 10 11 14 15 14 7 9 9 9 10 15 14 14 15 10 9 9 8 7 7 6 7 8 9 13 13 13 13 10
6 7 7 8 9 9 9 8 9 10 10 10 11 10 9 10 12 13 12 6 7 8 7 7 8 13 14 15 13 10 11 9 8 8 7 6 6 7 9 9 10 11 10
6 7 8 9 9 10 10 10 9 9 10 10 9 9 7 7 8 9 11 9 9 7 7 6 7 11 13 13 11 11 12 10 6 7 7 7 7 8 8 9 10 8 5
6 8 9 10 9 9 9 10 10 9 8 8 7 7 6 5 5 8 9 8 8 6 5 7 8 10 10 8 11 12 10 7 6 6 8 8 7 7 7 7 8 7 6
7 8 8 9 10 10 8 7 8 9 8 8 7 7 6 5 4 4 4 4 4 4 3 3 3 5 5 6 6 7 6 7 7 6 7 6 6 6 7 7 8 9 7
7 7 8 8 9 10 9 8 9 9 10 9 8 6 5 5 5 5 4 3 3 3 2 1 1 2 3 3 3 4 4 5 6 5 6 5 6 7 6 7 7 8 7
6 7 7 8 8 8 10 11 12 13 15 15 12 9 6 8 7 6 5 6 6 4 2 2 3 3 4 4 5 4 5 6 6 6 6 6 6 7 7 6 8 9 9
7 8 7 8 8 9 9 9 11 13 12 11 10 11 11 9 8 7 6 5 6 4 2 3 3 3 4 4 5 5 6 6 6 6 6 6 6 6 7 8 9 9 8
7 9 9 7 8 9 9 9 9 9 10 7 6 9 10 10 10 8 6 3 3 3 4 4 5 4 4 4 5 5 5 5 5 6 6 6 6 6 7 8 9 9 9
6 6 7 7 8 8 8 8 8 8 8 7 5 5 6 7 7 8 5 4 5 5 5 6 6 5 5 5 5 5 6 6 6 6 6 7 7 7 7 8 9 12 9
6 11 11 8 8 8 8 8 8 8 7 7 6 5 2 3 3 4 6 6 7 7 7 7 6 7 6 6 6 6 6 6 7 7 7 7 7 7 8 9 10 11 10
5 8 12 9 7 8 8 8 8 7 7 7 6 6 5 5 6 6 6 7 8 8 8 7 7 6 6 6 6 7 7 6 6 7 7 8 8 7 8 8 9 10 10
5 5 6 7 7 7 8 7 7 7 7 8 6 5 6 5 5 6 6 7 8 8 8 7 6 6 6 7 7 7 7 8 8 8 8 8 8 8 9 9 9 10 11
5 6 6 6 7 9 8 7 7 7 7 7 6 5 4 5 6 6 7 7 6 6 6 6 6 6 6 6 7 7 8 8 8 9 9 9 9 9 9 9 12 13 13
5 5 5 6 6 7 7 7 7 7 7 7 6 6 5 5 6 6 6 5 5 5 5 6 6 8 9 7 6 7 7 8 8 9 11 11 11 10 9 10 12 14 13
4 3 4 5 6 7 7 8 7 8 8 7 7 7 6 6 5 5 5 4 4 4 5 5 5 6 8 8 7 7 9 11 10 9 9 10 11 11 11 12 12 13 12
2 2 3 4 5 6 7 7 8 8 8 7 7 7 6 6 5 5 5 4 4 4 4 3 4 5 5 6 7 8 9 10 10 10 8 9 10 11 12 11 14 13 14
Wind_Direction
243 242 252 260 263 263 262 263 262 265 269 273 277 283 286 287 288 289 287 287 281 282 281 267 262 259 258 248 235 227 220 206 227 251 248 152 133 140 124 116 117 115 123
238 237 244 254 261 263 262 261 259 260 261 260 263 268 273 278 277 275 278 284 274 272 273 268 263 259 252 249 237 231 230 223 216 233 243 173 150 153 139 129 120 115 112
240 239 250 261 264 264 264 264 263 263 264 262 259 259 262 265 267 268 266 266 263 258 256 255 257 251 248 244 236 227 222 230 218 218 228 200 148 155 139 123 116 109 107
246 248 259 265 264 265 268 270 270 268 267 263 258 256 256 257 258 260 261 263 263 261 253 247 248 243 241 238 234 227 216 218 216 214 219 199 164 161 150 142 136 121 114
253 258 263 266 269 273 277 278 278 276 277 266 262 261 258 259 260 255 251 257 258 262 260 253 251 253 250 237 230 222 211 211 211 211 214 194 176 172 166 153 148 137 105
256 263 269 277 282 285 285 284 284 280 276 272 266 263 264 270 268 264 255 247 246 250 258 259 259 262 260 249 237 226 211 206 208 209 214 204 192 181 165 157 153 153 155
269 274 283 290 294 293 298 298 289 284 279 275 270 265 264 263 262 263 262 251 239 241 243 249 262 260 249 241 238 235 227 218 207 202 210 211 196 183 172 169 169 162 152
286 290 292 295 296 296 297 294 289 282 280 277 274 268 266 269 264 259 258 254 242 238 236 235 240 248 250 236 230 232 227 223 217 210 210 212 206 188 181 174 161 136 111
297 295 291 293 297 299 299 296 291 287 284 278 274 270 268 272 268 264 259 252 244 242 238 236 234 236 238 228 219 223 227 232 225 210 207 202 192 182 171 159 156 156 155
295 293 292 293 296 297 294 292 290 285 283 283 280 273 268 271 273 271 265 249 246 248 244 239 234 229 227 222 213 208 217 218 202 197 200 196 191 187 177 177 174 172 161
291 297 299 298 297 293 291 291 291 290 289 285 282 280 274 270 276 277 274 243 239 245 244 237 229 225 224 220 212 208 214 205 193 190 191 189 186 191 193 188 184 180 170
298 303 303 302 303 308 299 296 292 289 290 289 285 286 282 278 277 281 283 263 240 238 242 235 226 217 217 215 211 211 208 197 186 184 185 192 196 195 197 193 188 186 168
307 308 305 305 302 297 295 296 299 294 288 289 286 283 285 286 289 294 295 284 261 242 244 234 222 219 216 211 205 197 189 183 181 185 190 196 197 193 184 184 178 159 124
306 305 306 307 306 304 299 291 291 291 290 290 284 276 275 279 286 301 303 298 285 261 255 238 209 203 195 184 180 181 173 178 183 190 190 189 179 179 185 181 179 169 152
302 302 306 303 303 305 302 294 288 280 272 273 273 259 256 267 261 266 275 283 273 255 245 220 197 176 170 163 162 166 168 174 183 187 183 176 176 181 184 178 172 166 164
303 305 304 304 304 303 305 308 296 284 283 275 252 240 239 240 251 262 274 277 278 265 244 228 221 206 193 182 178 178 180 186 185 183 180 177 179 181 179 172 171 173 172
291 297 302 301 303 305 304 304 309 311 305 290 267 248 236 239 243 250 266 290 291 272 245 242 237 223 208 193 185 186 192 194 182 177 179 178 178 177 173 174 176 175 171
291 298 301 296 299 300 300 298 296 297 305 306 285 259 243 238 242 247 256 279 281 250 235 240 241 236 218 203 197 194 195 189 183 181 179 177 175 173 174 176 178 176 170
293 296 297 296 298 297 297 298 298 296 295 293 294 286 248 236 243 245 230 226 239 245 240 239 238 234 225 211 206 200 193 188 186 183 183 181 177 171 174 176 176 170 167
287 303 311 304 303 305 305 305 305 304 302 297 288 274 229 191 229 233 220 225 233 242 243 242 240 233 224 215 207 201 197 194 187 184 182 181 179 175 175 174 175 176 177
286 302 311 310 303 304 307 306 306 303 301 300 291 272 225 217 237 241 235 230 231 236 238 238 239 236 225 211 203 199 195 196 193 188 182 181 178 178 176 176 177 176 176
284 290 299 304 307 309 310 307 308 309 309 308 304 297 253 243 251 254 249 242 235 231 230 231 234 230 220 208 200 197 196 195 192 187 181 178 177 177 173 174 177 178 179
285 293 301 307 311 314 316 313 316 317 316 316 310 303 287 269 267 265 260 255 248 240 231 224 229 233 225 215 204 196 197 199 193 182 178 177 177 178 177 177 178 180 182
288 295 308 319 323 321 319 319 320 321 321 320 318 311 301 292 287 285 280 271 259 250 239 229 227 227 224 215 206 200 200 195 185 182 177 177 178 178 180 181 182 184 184
293 307 325 330 329 325 322 323 324 325 324 321 320 321 318 314 311 308 304 295 284 273 260 243 236 229 222 210 200 194 189 184 183 179 178 178 180 180 181 183 183 182 179
306 330 338 335 330 328 324 325 326 326 324 325 327 327 324 322 320 317 315 313 312 302 290 272 243 223 213 206 197 184 177 179 182 182 180 179 182 186 184 185 181 182 178
Height
1498 1495 1492 1489 1486 1483 1480 1477 1475 1472 1470 1467 1465 1463 1461 1459 1457 1456 1454 1454 1453 1453 1453 1454 1454 1455 1455 1456 1457 1458 1460 1462 1463 1464 1466 1468 1471 1474 1477 1480 1483 1486 1489
1494 1491 1488 1485 1482 1479 1476 1473 1470 1468 1465 1463 1461 1458 1456 1454 1452 1451 1449 1448 1447 1447 1447 1448 1449 1450 1450 1451 1452 1453 1455 1457 1460 1461 1463 1465 1467 1471 1474 1477 1480 1482 1485
1490 1487 1484 1481 1477 1474 1471 1468 1465 1463 1460 1457 1455 1453 1451 1449 1447 1445 1444 1442 1441 1441 1441 1442 1443 1444 1445 1447 1448 1449 1451 1453 1455 1457 1459 1462 1464 1467 1470 1473 1476 1478 1481
1485 1482 1479 1476 1472 1469 1466 1463 1460 1457 1454 1451 1449 1447 1444 1442 1440 1439 1438 1436 1435 1435 1435 1435 1436 1438 1439 1441 1442 1444 1446 1448 1450 1452 1455 1458 1460 1463 1466 1469 1472 1475 1478
1480 1477 1474 1471 1467 1464 1460 1457 1453 1450 1447 1445 1442 1440 1438 1436 1434 1432 1431 1430 1429 1428 1428 1428 1429 1431 1432 1435 1436 1439 1441 1442 1444 1446 1450 1453 1456 1458 1461 1465 1469 1472 1475
1475 1472 1469 1465 1462 1458 1454 1450 1447 1443 1441 1438 1435 1433 1431 1429 1427 1426 1424 1423 1422 1422 1421 1421 1422 1423 1425 1427 1430 1432 1435 1437 1439 1441 1444 1447 1450 1454 1457 1460 1465 1469 1472
1470 1467 1464 1460 1456 1452 1448 1443 1440 1437 1434 1431 1429 1426 1424 1422 1420 1418 1417 1415 1414 1413 1413 1413 1413 1414 1417 1419 1422 1425 1428 1430 1434 1436 1438 1441 1445 1448 1452 1455 1460 1465 1468
1465 1462 1458 1454 1450 1445 1441 1437 1434 1431 1428 1425 1422 1420 1417 1415 1413 1410 1408 1407 1405 1405 1404 1405 1405 1406 1409 1412 1414 1417 1420 1424 1427 1430 1433 1436 1440 1444 1447 1451 1455 1461 1467
1460 1457 1453 1449 1444 1439 1435 1431 1428 1425 1422 1419 1416 1413 1410 1407 1405 1403 1400 1398 1396 1395 1395 1395 1396 1397 1400 1404 1407 1409 1413 1417 1421 1424 1427 1430 1433 1437 1441 1446 1451 1457 1462
1455 1451 1447 1443 1438 1433 1429 1425 1422 1419 1416 1413 1410 1408 1404 1401 1398 1395 1393 1390 1388 1386 1386 1386 1387 1389 1392 1395 1399 1402 1406 1410 1415 1418 1421 1424 1427 1431 1435 1440 1445 1450 1455
1450 1446 1442 1437 1433 1428 1424 1421 1418 1415 1411 1408 1405 1402 1399 1395 1391 1388 1386 1383 1381 1379 1378 1378 1379 1381 1384 1387 1391 1394 1399 1404 1409 1412 1416 1419 1422 1426 1430 1434 1440 1445 1449
1445 1441 1436 1432 1428 1424 1420 1416 1413 1410 1406 1403 1399 1396 1393 1390 1386 1383 1380 1378 1375 1373 1372 1372 1373 1375 1378 1381 1385 1389 1394 1399 1403 1407 1410 1413 1416 1420 1424 1429 1434 1440 1446
1440 1436 1432 1427 1423 1420 1416 1412 1409 1405 1402 1398 1394 1391 1388 1385 1381 1379 1376 1374 1372 1370 1369 1369 1369 1371 1373 1376 1380 1384 1389 1393 1398 1402 1405 1408 1412 1416 1420 1425 1429 1435 1441
1436 1432 1427 1423 1419 1416 1412 1409 1405 1401 1397 1394 1390 1386 1383 1380 1377 1375 1373 1371 1370 1368 1367 1367 1367 1368 1370 1373 1377 1381 1384 1389 1393 1397 1401 1405 1408 1412 1415 1420 1424 1429 1435
1432 1427 1423 1419 1416 1412 1408 1405 1401 1398 1394 1390 1386 1382 1379 1376 1374 1372 1370 1369 1368 1368 1367 1367 1366 1367 1368 1371 1374 1378 1381 1385 1389 1394 1398 1401 1404 1408 1411 1415 1419 1424 1429
1427 1423 1419 1416 1412 1409 1405 1400 1397 1394 1390 1386 1382 1379 1375 1373 1371 1369 1368 1368 1367 1367 1367 1366 1366 1367 1368 1370 1373 1376 1379 1383 1387 1391 1395 1398 1401 1404 1408 1411 1415 1420 1425
1424 1420 1416 1413 1409 1406 1402 1398 1393 1389 1386 1383 1379 1376 1373 1370 1368 1367 1366 1366 1365 1365 1365 1365 1365 1366 1367 1369 1371 1374 1377 1381 1384 1388 1392 1395 1398 1402 1405 1409 1412 1416 1421
1420 1416 1413 1410 1406 1402 1399 1395 1391 1387 1382 1379 1376 1373 1370 1368 1366 1364 1364 1363 1363 1363 1363 1363 1364 1365 1366 1367 1369 1372 1374 1378 1381 1384 1388 1392 1395 1399 1402 1405 1409 1413 1417
1417 1413 1410 1406 1403 1400 1396 1392 1388 1384 1381 1377 1373 1370 1368 1366 1364 1362 1361 1361 1360 1361 1361 1361 1362 1362 1363 1365 1367 1369 1371 1374 1377 1381 1384 1388 1392 1395 1399 1402 1406 1410 1414
1413 1410 1407 1403 1400 1396 1393 1389 1385 1382 1378 1374 1371 1368 1366 1363 1361 1360 1359 1358 1357 1357 1358 1358 1359 1359 1360 1362 1363 1365 1367 1370 1373 1377 1381 1384 1388 1392 1395 1399 1402 1406 1410
1409 1406 1403 1400 1397 1394 1390 1386 1383 1379 1375 1372 1369 1366 1363 1361 1359 1357 1356 1355 1354 1354 1354 1354 1355 1356 1357 1358 1360 1362 1364 1367 1370 1373 1376 1380 1384 1388 1392 1395 1399 1403 1407
1406 1403 1400 1397 1394 1391 1387 1384 1380 1377 1373 1370 1366 1364 1361 1359 1356 1354 1353 1351 1350 1350 1350 1351 1351 1352 1353 1354 1356 1358 1360 1363 1366 1369 1372 1376 1380 1384 1387 1391 1395 1399 1404
1403 1400 1397 1394 1391 1388 1385 1382 1378 1375 1371 1368 1365 1361 1359 1356 1353 1351 1349 1348 1347 1346 1346 1346 1347 1348 1349 1350 1352 1354 1356 1359 1362 1365 1368 1372 1376 1379 1383 1387 1391 1395 1400
1400 1397 1394 1391 1388 1385 1382 1379 1376 1373 1370 1367 1363 1360 1357 1354 1351 1348 1346 1344 1343 1342 1342 1342 1342 1343 1344 1346 1347 1349 1352 1354 1357 1360 1364 1367 1371 1375 1378 1382 1387 1391 1396
1396 1394 1391 1388 1386 1383 1380 1377 1375 1372 1369 1366 1363 1359 1356 1352 1349 1346 1344 1341 1340 1339 1338 1337 1337 1338 1339 1340 1342 1344 1347 1349 1352 1355 1358 1362 1365 1369 1373 1377 1382 1387 1392
1393 1391 1388 1386 1383 1380 1378 1375 1373 1370 1367 1365 1362 1358 1355 1352 1348 1345 1342 1339 1337 1335 1334 1333 1333 1333 1333 1335 1337 1339 1341 1344 1346 1349 1353 1356 1359 1363 1368 1372 1377 1382 1388